STARLINK B (44236 NORAD) Tracking and Keplerian Element Data

This shows tracking and keplerian element data for the satellite.

Feedback or suggestion? Click here.




ElementValue
Catalog44236
NameSTARLINK B
Epoch Orbit385
Epoch Day173.88928362
Epoch Year2019
RAAN37.8429
Inclination52.9993
Eccentricity0.0002047
Argument of Perigee83.6696
Mean Anonmoly276.4525
Mean Motion15.05585012
Decay Rate1.734E-05
L11 44236U 19029B 19173.88928362 .00001734 00000-0 13812-3 0 9990
L22 44236 52.9993 37.8429 0002047 83.6696 276.4525 15.05585012 3851

Live tracking and technical data element details for STARLINK B (NORAD 44236). STARLINK B can be tracked NOW for your location showing map with azimuth and elevation plus other details from your city location.

Track the satellite on the map from your city or location and see movement details for azimuth, elevation, latitude, longitude, range, height, and movement on the map or in text.







IsCatalogInMostPopularTable: catalog: 44236, numindb: 63
Update: records affected: 1



GetName: 44236 STARLINK B

Hit Count: updated at: Sun, 21 Jul 2019 21:37:56 GMT